SCP
0 0 0 0 0 0 0 0 0 0 0 0 0 0 0 0 0 0 0 0 0 0 0 0 0 0 0 0 0 0 0 0 0 0 0 0 0 0 0 0 0 0 0 0 0 0 0 0 0 0 -0 -0 -0 -0
0 0 0 0 0 0 0 0 0 0 0 0 0 0 0 0 0 0 0 0 0 0 0 0 0 0 0 0 0 0 0 0 0 0 0 0 0 0 0 0 0 0 0 0 0 0 0 0 0 0 -0 -0 -0 -0
0 0 0 0 0 0 0 0 0 0 0 0 0 0 0 0 0 0 0 0 0 0 0 0 0 0 0 0 0 0 0 0 0 0 0 0 0 0 0 0 0 0 0 0 0 0 0 0 0 0 0 0 0 0
0 0 0 0 0 0 0 0 0 0 0 0 0 0 0 0 0 0 0 0 0 0 0 0 0 0 0 0 0 0 0 0 0 0 0 0 0 0 0 0 0 0 0 0 0 0 0 0 0 0 0 0 0 0
0 0 0 0 0 0 0 0 0 0 0 0 0 0 0 0 0 0 0 0 0 0 0 0 0 0 0 0 0 0 0 0 0 0 0 0 0 0 0 0 0 0 0 0 0 0 0 0 0 0 0 0 0 0
0 0 0 0 0 0 0 0 0 0 0 0 0 0 0 0 0 0 0 0 0 0 0 0 0 0 0 0 0 0 0 0 0 0 0 0 0 0 0 0 0 0 0 0 0 0 0 0 0 0 0 0 0 0
0 0 0 0 0 0 0 0 0 0 0 0 0 0 0 0 0 0 0 0 0 0 0 0 0 0 0 0 0 0 0 0 0 0 0 0 0 0 0 0 0 0 0 0 0 0 0 0 0 0 0 0 0 0
0 0 0 0 0 0 0 0 0 0 0 0 0 0 0 0 0 0 0 0 0 0 0 0 0 0 0 0 0 0 0 0 0 0 0 0 0 0 0 0 0 0 0 0 0 0 0 0 0 0 0 0 0 0
0 0 0 0 0 0 0 0 0 0 0 0 0 0 0 0 0 0 0 0 0 0 0 0 0 0 0 0 0 0 0 0 0 0 0 0 0 0 0 0 0 0 0 0 0 0 0 0 0 0 0 0 0 0
0 0 0 0 0 0 0 0 0 0 0 0 0 0 0 0 0 0 0 0 0 0 0 0 0 0 0 0 0 0 0 0 0 0 0 0 0 0 0 0 0 0 0 0 0 0 0 0 0 0 0 0 0 0
0 0 0 0 0 0 0 0 0 0 0 0 0 0 0 0 0 0 0 0 0 0 0 0 0 0 0 0 0 0 0 0 0 0 0 0 0 0 0 0 0 0 0 0 0 0 0 0 0 0 0 0 0 0
0 0 0 0 0 0 0 0 0 0 0 0 0 0 0 0 0 0 0 0 0 0 0 0 0 0 0 0 0 0 0 0 0 0 0 0 0 0 0 0 0 0 0 0 0 0 0 0 0 0 0 0 0 -0
0 0 0 0 0 0 0 0 0 0 0 0 0 0 0 0 0 0 0 0 0 0 0 0 0 0 0 0 0 0 0 0 0 0 0 0 0 0 0 0 0 0 0 0 0 0 0 0 0 0 0 0 -0 -0
-0 0 0 0 0 0 -0 0 0 0 0 0 0 0 0 0 0 0 0 0 0 0 0 0 0 0 0 0 0 0 0 0 0 0 0 0 0 0 0 0 0 0 0 0 0 0 0 0 0 0 -0 -0 0 -0
0 0 0 0 0 0 0 0 0 0 0 0 0 0 0 0 0 0 0 0 0 0 0 0 0 0 0 0 0 0 0 0 0 0 0 0 0 0 0 0 0 0 0 0 0 0 0 0 0 -0 -0 -0 0 -0
0 0 0 0 0 0 0 0 0 0 0 0 0 0 0 0 0 0 0 0 0 0 0 0 0 0 0 0 0 0 0 0 0 0 0 0 0 0 0 0 0 0 0 0 0 0 0 0 -0 -0 0 0 0 0
0 0 0 0 0 0 0 0 0 0 0 0 0 0 0 0 0 0 0 0 0 0 0 0 0 0 0 0 0 0 0 0 0 0 0 0 0 0 0 0 0 0 0 0 0 0 -0 -0 -0 -0 -0 0 0 -0
0 0 0 0 0 0 0 0 0 0 0 0 0 0 0 0 0 0 0 0 0 0 0 0 0 0 0 0 0 0 0 0 0 0 0 0 0 0 0 0 0 0 0 0 0 -0 -0 -0 -0 -0 -0 -0 -0 0
0 0 0 0 0 0 0 0 0 0 0 0 0 0 0 0 0 0 0 0 0 0 0 0 0 0 0 0 0 0 0 0 0 0 0 0 0 0 0 0 0 0 0 0 -0 -0 -0 -0 0 0 0 0 0 0
-0 -0 0 0 0 0 0 0 0 0 0 0 0 0 0 0 0 0 0 0 0 0 0 0 0 0 0 0 0 0 0 0 0 0 0 0 0 0 0 0 0 0 -0 -0 -0 0 0 0 0 0 0 0 0 -0
0 0 -0 0 0 0 0 0 0 0 0 0 0 0 0 0 0 0 0 0 0 0 0 0 0 0 0 0 0 0 0 0 0 0 0 0 0 0 0 0 0 -0 0 0 0 0 0 0 0 0 0 0 0 -0
0 0 0 0 0 0 0 0 0 0 0 0 0 0 0 0 0 0 0 0 0 0 0 0 0 0 0 0 0 0 0 0 0 0 0 0 0 0 0 0 0 0 0 0 0 0 0 0 0 0 0 0 -0 -0
0 0 0 0 0 0 0 0 0 0 0 0 0 0 0 0 0 0 0 0 0 0 0 0 0 0 0 0 0 0 0 0 0 0 0 0 0 0 0 0 0 0 0 0 0 0 0 0 0 0 0 0 0 0
0 0 0 0 0 0 0 0 0 0 0 0 0 0 0 0 0 0 0 0 0 0 0 0 0 0 0 0 0 0 0 0 0 0 0 0 0 0 0 0 0 0 0 0 0 0 0 0 0 0 0 0 0 0
0 0 0 0 0 0 0 0 0 0 0 0 0 0 0 0 0 0 0 0 0 0 0 0 0 0 0 0 0 -0 -0 -0 0 0 0 0 0 0 0 0 0 0 0 0 0 0 0 0 0 0 0 0 0 0
-0 0 0 0 0 0 0 0 0 0 0 0 0 0 0 0 0 0 0 0 0 0 0 0 0 0 -0 -0 -0 -0 -0 0 0 0 0 0 0 0 0 0 0 0 -0 0 0 0 0 0 0 0 0 0 0 0
-0 -0 0 0 0 0 0 0 0 0 0 0 0 0 0 0 0 0 0 0 -0 -0 0 -0 -0 -0 -0 -0 0 0 0 0 0 0 0 0 0 0 0 0 0 -0 -0 0 0 0 0 0 0 0 0 0 0 0
-0 0 0 0 0 0 0 0 0 0 0 0 0 0 0 0 0 0 0 -0 -0 -0 0 0 0 0 0 0 0 -0 0 0 0 0 0 -0 -0 -0 -0 -0 -0 -0 0 0 0 0 0 0 0 0 0 0 0 0
0 0 -0 -0 -0 0 0 0 0 -0 0 0 0 -0 0 0 0 0 0 0 0 -0 -0 -0 0 -0 -0 -0 -0 -0 -0 -0 0 0 0 0 0 0 0 0 0 0 0 0 0 0 0 0 0 0 0 0 0 0
-0 0 -0 -0 -0 -0 -0 -0 -0 -0 -0 -0 -0 -0 -0 0 0 0 0 0 0 0 0 0 0 0 0 0 -0 0 0 0 0 0 0 0 0 0 0 0 0 0 0 0 0 0 0 0 0 0 0 0 0 0
0 0 0 -0 -0 -0 -0 -0 -0 -0 -0 -0 -0 -0 0 0 0 0 0 0 0 0 0 0 0 0 0 0 0 0 0 0 0 0 0 0 0 0 0 0 0 0 0 0 0 0 0 0 0 0 0 0 0 0
0 0 0 0 0 -0 0 0 -0 -0 -0 -0 -0 -0 -0 -0 -0 -0 0 0 0 0 0 0 0 -0 0 0 0 0 0 0 0 0 0 0 0 0 0 0 0 0 0 0 0 0 0 0 0 0 0 0 0 0
-0 -0 0 0 -0 -0 0 -0 -0 0 0 0 0 0 0 0 0 0 0 0 0 0 0 0 0 0 0 0 0 0 0 0 0 0 0 0 0 0 0 0 0 0 0 0 0 0 0 0 0 0 0 0 0 0
Wind_Speed_500mb
55 55 52 53 51 49 50 50 43 47 43 53 56 55 54 53 50 48 57 53 60 36 61 41 36 34 19 19 7 7 4 9 4 7 7 7 6 9 2 6 8 8 5 6 2 1 16 12 12 1 13 30 26 15
61 58 59 61 54 56 56 60 50 45 50 57 49 65 56 57 56 52 57 55 48 56 26 23 41 56 75 73 52 26 24 15 22 3 2 4 4 1 9 15 9 8 13 10 16 12 17 52 35 46 40 44 34 31
64 63 64 63 64 60 61 57 55 53 55 56 50 55 62 55 57 59 61 52 46 48 55 64 60 78 80 73 65 40 35 39 40 49 12 6 15 7 15 11 19 16 41 14 1 22 31 42 60 53 52 43 40 44
66 70 70 68 66 62 60 66 55 56 54 56 57 55 54 55 56 54 61 60 55 22 12 44 52 54 45 40 56 72 87 62 48 47 24 11 9 19 9 14 17 19 7 14 27 33 43 58 61 52 40 41 47 54
68 70 71 70 68 69 67 69 61 56 51 53 53 51 53 57 55 54 60 63 59 54 9 16 29 35 31 36 46 48 62 72 52 25 11 16 16 14 8 10 17 29 37 25 30 54 43 44 58 39 35 42 38 44
70 68 69 68 71 68 68 67 65 63 59 52 48 51 53 53 47 48 53 73 69 67 24 10 29 48 47 45 58 70 73 71 60 31 14 29 48 19 10 13 27 51 56 65 50 75 64 66 51 36 35 39 42 49
65 67 67 67 66 66 64 63 62 61 59 54 47 45 49 51 49 54 13 8 26 62 29 7 7 22 27 35 47 61 55 39 34 31 27 33 26 19 10 25 36 55 55 58 54 55 44 38 15 25 37 47 56 66
62 61 60 60 64 64 62 62 61 57 50 46 49 48 47 47 50 59 68 48 31 39 20 6 8 3 14 14 8 24 30 35 34 33 19 15 22 15 15 28 54 49 39 36 32 27 28 37 39 41 47 55 66 74
61 61 59 59 59 61 59 58 56 53 49 47 46 42 41 49 52 56 56 52 63 54 9 10 8 7 20 17 14 11 16 8 16 12 13 15 8 13 13 11 9 13 5 18 25 27 29 32 43 50 56 63 70 81
52 53 56 56 60 63 62 57 53 50 47 41 38 29 15 26 39 34 22 23 30 23 25 9 20 4 15 19 9 9 16 8 7 9 14 9 11 13 13 9 9 12 15 22 28 25 41 46 50 58 65 68 67 77
51 49 48 47 44 46 50 51 54 49 40 43 24 23 16 17 25 18 14 14 14 6 11 13 36 13 23 6 10 20 7 6 7 7 8 2 6 7 10 8 9 12 15 19 23 29 35 44 56 66 76 76 80 83
46 46 47 50 49 45 48 56 60 58 56 35 16 19 27 19 16 12 10 5 8 13 9 7 15 25 14 21 9 9 7 4 8 5 7 5 6 10 6 5 8 13 20 24 29 37 41 47 52 60 70 77 78 80
51 46 41 40 38 41 45 45 46 59 52 45 25 22 17 15 17 15 13 4 1 5 15 13 4 9 12 17 7 6 10 9 7 5 8 8 10 6 4 9 11 19 26 33 39 43 49 55 57 60 69 68 68 70
49 48 47 41 38 39 36 40 52 51 48 22 15 14 12 8 8 9 10 10 14 16 33 23 7 6 8 5 2 5 2 6 4 4 12 3 4 10 15 21 27 30 35 43 48 52 56 58 63 60 57 57 58 60
39 36 37 37 39 42 42 38 42 47 21 13 13 11 11 10 7 9 17 20 16 32 27 11 4 5 4 5 5 4 3 8 11 11 3 2 12 19 25 28 32 38 43 50 52 56 57 57 56 58 50 48 48 51
27 34 38 33 30 32 38 40 43 49 12 19 3 5 7 8 5 7 11 12 24 27 21 10 4 4 6 5 6 12 9 12 8 5 2 12 19 23 28 31 35 39 43 48 50 50 50 47 45 47 45 41 43 40
22 29 29 28 26 30 28 33 28 15 11 9 4 9 5 15 12 10 9 14 26 22 6 5 10 19 3 2 6 8 10 4 8 3 8 15 22 26 28 32 36 38 41 41 42 40 39 36 35 36 39 40 33 27
19 21 25 27 26 29 34 27 15 8 10 5 5 3 6 12 21 14 16 24 15 9 14 8 10 4 10 11 8 5 5 5 10 8 14 16 16 19 24 31 33 34 34 35 33 32 30 31 31 32 33 30 25 21
2 11 21 28 31 18 9 9 7 9 8 9 18 14 9 19 19 16 19 18 17 16 19 9 6 6 7 3 5 8 7 4 8 15 18 8 13 17 20 23 26 27 28 27 26 26 27 22 21 23 25 22 20 20
8 9 8 45 34 7 10 10 11 14 6 8 12 11 10 14 13 16 16 15 15 11 6 4 7 5 6 8 6 4 5 6 10 15 4 5 10 14 18 23 25 24 22 21 19 21 22 19 18 19 19 18 17 19
4 6 8 26 19 15 14 8 11 11 14 11 13 7 10 14 7 2 4 9 4 5 1 5 9 11 4 5 5 4 5 6 7 6 8 7 12 16 19 21 20 23 27 30 32 32 30 30 27 23 21 20 19 19
7 9 8 13 11 11 15 16 13 13 10 10 8 8 10 4 3 4 5 8 2 2 4 7 11 7 5 4 3 3 2 2 0 2 4 7 9 11 18 22 22 26 30 33 34 36 36 34 30 27 25 24 21 20
13 5 9 10 9 11 6 7 8 6 6 4 6 6 5 4 3 2 3 3 4 8 12 12 12 12 11 10 10 10 11 10 8 7 6 5 7 9 11 15 20 23 25 28 30 31 31 30 30 29 27 24 22 21
15 9 14 13 18 3 4 11 8 8 8 7 6 3 3 2 1 5 2 5 8 18 17 16 17 18 15 14 12 10 9 9 8 7 6 5 5 8 11 14 15 20 23 23 24 24 24 25 25 25 26 25 25 25
8 21 15 12 15 10 11 9 10 8 5 3 6 4 3 6 4 0 5 5 23 26 23 22 21 17 13 14 11 7 4 2 4 6 6 8 10 10 11 12 15 16 20 19 19 21 23 23 23 23 23 22 22 22
15 17 10 2 9 7 0 6 4 4 4 4 0 4 3 5 3 8 6 9 20 31 29 26 23 20 16 11 8 5 4 5 8 10 9 10 11 13 13 13 13 15 19 22 23 24 25 26 26 26 26 25 24 23
10 7 11 14 5 7 9 8 6 6 5 5 4 1 4 3 7 6 3 11 14 21 22 21 18 14 9 8 5 7 9 10 11 12 13 14 13 11 10 10 11 13 17 21 25 27 29 30 30 30 30 28 31 31
8 10 6 10 8 8 8 3 3 4 5 6 5 3 10 12 7 1 5 16 18 22 22 21 20 16 12 8 6 7 10 12 11 10 11 9 8 8 7 9 12 17 20 23 26 29 33 36 38 37 36 36 34 35
9 10 7 7 5 6 2 5 6 3 5 5 5 4 6 7 5 3 3 17 22 24 24 22 20 15 12 9 7 7 9 10 12 12 12 11 8 8 12 16 20 24 29 30 30 34 37 40 43 48 46 45 42 39
11 15 5 3 4 1 2 2 2 4 5 7 8 9 10 10 9 13 14 19 26 25 21 21 21 18 15 15 12 12 13 13 13 14 15 14 17 19 21 24 27 29 32 34 35 35 37 41 41 42 44 44 43 42
10 7 2 2 2 1 1 5 10 12 10 7 14 12 12 13 8 7 13 18 23 28 31 29 26 21 18 16 15 17 15 14 15 17 22 26 27 27 27 29 30 31 35 39 42 46 49 50 50 50 48 47 44 44
9 5 2 3 3 3 6 7 4 3 4 5 5 6 6 8 7 2 1 11 20 23 21 21 19 13 13 16 18 18 17 17 18 21 25 27 29 30 32 35 37 42 47 52 55 57 58 60 61 59 58 55 52 49
4 4 3 4 3 2 7 12 4 6 4 4 3 4 4 5 7 4 3 2 3 9 14 18 18 17 16 14 12 12 13 14 17 22 26 30 33 38 44 49 53 56 60 63 64 64 64 65 65 63 61 59 58 56
Wind_Direction_500mb
256 257 257 257 257 257 257 258 256 254 253 253 253 253 248 247 244 245 247 246 239 240 249 244 238 232 213 209 175 210 354 247 68 194 170 222 175 226 112 235 186 159 179 233 16 94 279 356 352 115 241 273 274 258
256 254 255 258 254 257 256 255 254 263 260 258 252 252 252 245 243 240 244 250 252 251 265 257 252 256 247 251 249 239 232 186 211 127 271 96 263 10 170 254 206 254 204 241 190 216 288 308 281 282 286 277 259 280
260 260 255 253 251 251 254 257 256 255 258 266 261 253 253 251 243 239 240 245 247 246 266 262 256 263 259 247 248 234 244 235 235 233 214 214 235 136 247 232 254 245 246 235 355 261 263 263 278 275 284 252 274 293
258 257 258 258 254 254 253 252 250 254 256 259 257 252 256 256 249 245 239 238 240 237 246 269 267 248 257 252 247 244 248 250 255 247 240 224 221 192 224 240 227 238 137 228 256 271 270 274 272 275 255 259 279 289
261 260 258 258 258 256 255 254 247 249 249 254 260 252 249 252 254 248 243 243 241 229 264 281 269 246 249 241 241 244 248 247 241 235 226 243 243 234 218 240 247 242 245 248 254 269 267 278 287 275 273 285 278 285
262 263 261 258 256 254 255 253 249 244 244 249 254 255 255 257 254 245 250 250 241 240 247 248 274 253 253 255 259 250 246 241 226 232 234 244 244 224 242 249 264 256 242 243 256 269 274 274 272 283 280 283 291 294
263 263 261 258 255 252 252 251 249 247 241 243 250 255 257 257 245 232 219 235 223 225 228 243 272 243 237 248 258 246 240 223 219 233 239 243 237 222 243 259 267 259 260 266 265 264 267 274 263 282 293 296 297 299
262 262 260 259 255 249 250 247 248 243 245 243 245 253 258 258 254 244 242 249 244 207 228 215 254 231 190 186 211 228 224 224 234 238 238 232 250 229 254 253 259 269 268 256 250 264 272 285 291 294 301 306 306 308
259 258 256 257 256 252 245 246 244 240 238 241 242 249 257 244 240 245 252 250 244 234 218 197 171 231 186 200 183 172 222 206 213 213 223 203 213 224 226 257 265 277 278 281 293 297 295 298 305 309 310 312 313 312
259 259 258 258 251 245 241 237 236 230 234 236 233 227 227 231 245 236 221 216 211 207 211 179 184 210 194 185 229 170 199 222 215 219 151 220 236 229 232 215 223 266 288 303 316 316 314 311 314 311 312 315 313 311
267 262 256 252 245 243 242 235 234 221 225 219 207 200 208 188 188 192 206 204 178 222 218 227 216 229 232 159 221 206 203 186 199 244 169 294 269 140 176 209 247 273 292 306 306 304 304 303 308 312 312 313 315 317
270 265 258 257 250 247 244 238 231 214 210 210 194 181 185 188 205 200 188 184 191 206 204 165 225 214 203 192 186 201 200 174 213 109 95 258 238 120 162 240 275 290 300 302 303 306 307 306 308 308 310 314 318 319
259 262 261 248 246 244 246 246 215 204 207 210 194 178 181 190 217 190 190 220 296 189 176 178 219 197 190 206 225 212 189 215 127 80 216 222 111 112 337 303 301 313 313 312 312 312 311 312 315 316 315 320 320 319
252 249 250 248 245 246 243 239 218 203 198 187 180 178 185 199 228 185 176 186 199 170 167 161 126 205 198 190 205 197 167 130 174 227 233 146 83 336 330 331 325 320 317 315 317 318 317 318 316 317 319 321 320 323
240 242 240 238 238 234 229 222 214 207 210 181 182 207 195 170 155 177 161 143 149 157 145 112 116 196 192 236 213 74 169 237 203 222 203 212 322 326 325 324 322 321 321 318 320 318 318 318 318 318 324 322 323 322
240 239 238 241 236 227 214 209 210 219 214 194 154 138 123 95 317 163 149 140 147 153 125 107 126 114 234 197 196 213 157 220 229 192 207 310 323 324 322 320 320 318 318 317 317 317 316 319 320 320 321 326 324 320
243 237 230 230 229 221 209 212 212 194 153 109 115 136 100 96 142 159 155 147 156 157 148 124 157 214 28 77 243 197 209 211 186 284 316 322 319 322 320 318 321 321 320 319 318 320 321 323 321 324 326 327 326 326
210 222 225 228 216 203 205 193 178 98 65 72 115 56 96 115 124 135 145 151 157 142 136 177 128 125 194 190 250 218 195 191 294 304 323 325 315 320 322 322 326 326 325 327 326 325 325 333 331 331 329 332 338 345
186 260 259 225 216 184 126 98 119 98 69 81 102 108 97 98 102 129 136 146 137 130 131 102 98 203 231 184 175 167 187 279 304 323 330 335 335 336 336 334 338 341 339 336 336 339 339 334 332 338 342 347 357 5
343 304 183 179 193 119 83 57 76 95 115 132 118 104 85 87 100 94 108 128 138 126 81 145 209 180 133 152 181 257 272 279 306 321 52 50 13 10 2 3 2 360 3 8 9 6 7 12 12 8 6 8 15 18
345 118 117 160 105 77 88 78 72 82 107 95 116 83 75 80 72 60 101 123 101 69 2 162 138 143 177 249 258 246 255 270 280 279 320 19 39 28 27 26 25 28 31 29 31 32 29 25 24 25 25 29 31 31
151 125 92 61 74 75 75 53 95 95 78 102 85 86 85 66 13 35 46 49 41 108 140 162 177 194 170 165 149 171 201 171 110 33 46 47 39 36 31 28 31 35 36 34 34 33 33 33 33 35 40 42 43 44
134 114 68 55 93 61 67 78 91 71 117 145 115 62 21 24 60 66 42 232 200 186 170 168 163 155 145 137 128 122 112 97 92 93 86 63 31 19 7 11 19 25 31 31 29 30 31 33 36 38 41 42 43 43
112 61 36 44 35 95 72 33 59 71 83 47 68 72 344 224 93 58 242 260 186 177 177 170 164 160 158 150 138 126 112 106 101 93 79 44 6 356 356 357 358 8 11 15 14 12 16 21 25 28 31 31 32 33
92 10 18 8 23 45 40 20 1 50 69 357 83 6 330 12 62 306 224 239 186 186 182 177 175 175 171 160 161 168 182 233 270 278 295 323 345 350 351 350 353 357 3 3 6 8 9 9 8 7 6 5 7 9
67 5 42 314 350 74 230 74 43 132 109 57 187 316 360 87 95 243 231 193 190 190 187 181 175 176 181 188 203 221 256 296 311 313 298 296 304 318 329 345 358 3 8 9 10 10 8 5 2 1 359 356 354 350
67 347 26 34 51 99 73 59 87 83 87 151 219 100 91 138 249 253 219 179 173 182 177 179 180 177 184 192 219 268 287 298 302 313 310 302 300 298 308 332 355 4 6 3 1 360 359 357 355 351 349 347 342 341
80 31 78 346 39 45 122 80 98 164 214 194 140 173 163 190 233 305 197 180 170 172 180 185 185 187 196 218 257 286 299 311 314 318 326 324 317 319 319 332 338 339 339 340 339 338 337 335 334 333 334 334 335 330
48 10 354 12 22 43 112 145 204 181 156 181 146 239 249 241 236 260 235 196 184 183 189 192 192 203 215 233 268 301 311 321 323 324 330 336 337 327 328 323 322 321 319 323 326 326 326 325 324 322 322 321 321 320
11 4 42 37 77 332 352 78 89 171 223 251 281 286 276 269 268 242 215 209 209 203 199 201 214 224 232 249 264 288 304 306 307 308 314 320 319 316 313 310 309 310 310 314 319 321 320 319 317 313 311 310 310 309
346 346 7 50 204 77 346 295 283 272 260 265 255 258 278 302 305 246 217 207 208 212 216 221 229 240 250 265 283 290 293 293 299 301 303 307 311 313 311 306 304 303 304 308 311 314 316 317 318 316 314 311 309 305
341 31 96 16 305 324 323 337 290 271 247 253 252 270 291 296 289 22 353 226 228 230 233 237 243 254 269 265 266 281 296 300 302 301 302 307 310 312 309 305 302 299 299 299 301 303 304 306 309 311 310 308 307 306
318 336 339 326 345 20 349 342 21 336 258 269 262 292 289 281 253 41 30 1 220 200 211 225 233 239 251 271 282 287 295 305 306 306 306 305 309 312 310 307 302 298 296 296 297 298 299 301 302 304 303 302 302 300
Wind_Speed_850mb
55 55 52 53 51 49 50 50 43 47 43 53 56 55 54 53 50 48 57 53 60 36 61 41 36 34 19 19 7 7 4 9 4 7 7 7 6 9 2 6 8 8 5 6 2 1 16 12 12 1 13 30 26 15
61 58 59 61 54 56 56 60 50 45 50 57 49 65 56 57 56 52 57 55 48 56 26 23 41 56 75 73 52 26 24 15 22 3 2 4 4 1 9 15 9 8 13 10 16 12 17 52 35 46 40 44 34 31
64 63 64 63 64 60 61 57 55 53 55 56 50 55 62 55 57 59 61 52 46 48 55 64 60 78 80 73 65 40 35 39 40 49 12 6 15 7 15 11 19 16 41 14 1 22 31 42 60 53 52 43 40 44
66 70 70 68 66 62 60 66 55 56 54 56 57 55 54 55 56 54 61 60 55 22 12 44 52 54 45 40 56 72 87 62 48 47 24 11 9 19 9 14 17 19 7 14 27 33 43 58 61 52 40 41 47 54
68 70 71 70 68 69 67 69 61 56 51 53 53 51 53 57 55 54 60 63 59 54 9 16 29 35 31 36 46 48 62 72 52 25 11 16 16 14 8 10 17 29 37 25 30 54 43 44 58 39 35 42 38 44
70 68 69 68 71 68 68 67 65 63 59 52 48 51 53 53 47 48 53 73 69 67 24 10 29 48 47 45 58 70 73 71 60 31 14 29 48 19 10 13 27 51 56 65 50 75 64 66 51 36 35 39 42 49
65 67 67 67 66 66 64 63 62 61 59 54 47 45 49 51 49 54 13 8 26 62 29 7 7 22 27 35 47 61 55 39 34 31 27 33 26 19 10 25 36 55 55 58 54 55 44 38 15 25 37 47 56 66
62 61 60 60 64 64 62 62 61 57 50 46 49 48 47 47 50 59 68 48 31 39 20 6 8 3 14 14 8 24 30 35 34 33 19 15 22 15 15 28 54 49 39 36 32 27 28 37 39 41 47 55 66 74
61 61 59 59 59 61 59 58 56 53 49 47 46 42 41 49 52 56 56 52 63 54 9 10 8 7 20 17 14 11 16 8 16 12 13 15 8 13 13 11 9 13 5 18 25 27 29 32 43 50 56 63 70 81
52 53 56 56 60 63 62 57 53 50 47 41 38 29 15 26 39 34 22 23 30 23 25 9 20 4 15 19 9 9 16 8 7 9 14 9 11 13 13 9 9 12 15 22 28 25 41 46 50 58 65 68 67 77
51 49 48 47 44 46 50 51 54 49 40 43 24 23 16 17 25 18 14 14 14 6 11 13 36 13 23 6 10 20 7 6 7 7 8 2 6 7 10 8 9 12 15 19 23 29 35 44 56 66 76 76 80 83
46 46 47 50 49 45 48 56 60 58 56 35 16 19 27 19 16 12 10 5 8 13 9 7 15 25 14 21 9 9 7 4 8 5 7 5 6 10 6 5 8 13 20 24 29 37 41 47 52 60 70 77 78 80
51 46 41 40 38 41 45 45 46 59 52 45 25 22 17 15 17 15 13 4 1 5 15 13 4 9 12 17 7 6 10 9 7 5 8 8 10 6 4 9 11 19 26 33 39 43 49 55 57 60 69 68 68 70
49 48 47 41 38 39 36 40 52 51 48 22 15 14 12 8 8 9 10 10 14 16 33 23 7 6 8 5 2 5 2 6 4 4 12 3 4 10 15 21 27 30 35 43 48 52 56 58 63 60 57 57 58 60
39 36 37 37 39 42 42 38 42 47 21 13 13 11 11 10 7 9 17 20 16 32 27 11 4 5 4 5 5 4 3 8 11 11 3 2 12 19 25 28 32 38 43 50 52 56 57 57 56 58 50 48 48 51
27 34 38 33 30 32 38 40 43 49 12 19 3 5 7 8 5 7 11 12 24 27 21 10 4 4 6 5 6 12 9 12 8 5 2 12 19 23 28 31 35 39 43 48 50 50 50 47 45 47 45 41 43 40
22 29 29 28 26 30 28 33 28 15 11 9 4 9 5 15 12 10 9 14 26 22 6 5 10 19 3 2 6 8 10 4 8 3 8 15 22 26 28 32 36 38 41 41 42 40 39 36 35 36 39 40 33 27
19 21 25 27 26 29 34 27 15 8 10 5 5 3 6 12 21 14 16 24 15 9 14 8 10 4 10 11 8 5 5 5 10 8 14 16 16 19 24 31 33 34 34 35 33 32 30 31 31 32 33 30 25 21
2 11 21 28 31 18 9 9 7 9 8 9 18 14 9 19 19 16 19 18 17 16 19 9 6 6 7 3 5 8 7 4 8 15 18 8 13 17 20 23 26 27 28 27 26 26 27 22 21 23 25 22 20 20
8 9 8 45 34 7 10 10 11 14 6 8 12 11 10 14 13 16 16 15 15 11 6 4 7 5 6 8 6 4 5 6 10 15 4 5 10 14 18 23 25 24 22 21 19 21 22 19 18 19 19 18 17 19
4 6 8 26 19 15 14 8 11 11 14 11 13 7 10 14 7 2 4 9 4 5 1 5 9 11 4 5 5 4 5 6 7 6 8 7 12 16 19 21 20 23 27 30 32 32 30 30 27 23 21 20 19 19
7 9 8 13 11 11 15 16 13 13 10 10 8 8 10 4 3 4 5 8 2 2 4 7 11 7 5 4 3 3 2 2 0 2 4 7 9 11 18 22 22 26 30 33 34 36 36 34 30 27 25 24 21 20
13 5 9 10 9 11 6 7 8 6 6 4 6 6 5 4 3 2 3 3 4 8 12 12 12 12 11 10 10 10 11 10 8 7 6 5 7 9 11 15 20 23 25 28 30 31 31 30 30 29 27 24 22 21
15 9 14 13 18 3 4 11 8 8 8 7 6 3 3 2 1 5 2 5 8 18 17 16 17 18 15 14 12 10 9 9 8 7 6 5 5 8 11 14 15 20 23 23 24 24 24 25 25 25 26 25 25 25
8 21 15 12 15 10 11 9 10 8 5 3 6 4 3 6 4 0 5 5 23 26 23 22 21 17 13 14 11 7 4 2 4 6 6 8 10 10 11 12 15 16 20 19 19 21 23 23 23 23 23 22 22 22
15 17 10 2 9 7 0 6 4 4 4 4 0 4 3 5 3 8 6 9 20 31 29 26 23 20 16 11 8 5 4 5 8 10 9 10 11 13 13 13 13 15 19 22 23 24 25 26 26 26 26 25 24 23
10 7 11 14 5 7 9 8 6 6 5 5 4 1 4 3 7 6 3 11 14 21 22 21 18 14 9 8 5 7 9 10 11 12 13 14 13 11 10 10 11 13 17 21 25 27 29 30 30 30 30 28 31 31
8 10 6 10 8 8 8 3 3 4 5 6 5 3 10 12 7 1 5 16 18 22 22 21 20 16 12 8 6 7 10 12 11 10 11 9 8 8 7 9 12 17 20 23 26 29 33 36 38 37 36 36 34 35
9 10 7 7 5 6 2 5 6 3 5 5 5 4 6 7 5 3 3 17 22 24 24 22 20 15 12 9 7 7 9 10 12 12 12 11 8 8 12 16 20 24 29 30 30 34 37 40 43 48 46 45 42 39
11 15 5 3 4 1 2 2 2 4 5 7 8 9 10 10 9 13 14 19 26 25 21 21 21 18 15 15 12 12 13 13 13 14 15 14 17 19 21 24 27 29 32 34 35 35 37 41 41 42 44 44 43 42
10 7 2 2 2 1 1 5 10 12 10 7 14 12 12 13 8 7 13 18 23 28 31 29 26 21 18 16 15 17 15 14 15 17 22 26 27 27 27 29 30 31 35 39 42 46 49 50 50 50 48 47 44 44
9 5 2 3 3 3 6 7 4 3 4 5 5 6 6 8 7 2 1 11 20 23 21 21 19 13 13 16 18 18 17 17 18 21 25 27 29 30 32 35 37 42 47 52 55 57 58 60 61 59 58 55 52 49
4 4 3 4 3 2 7 12 4 6 4 4 3 4 4 5 7 4 3 2 3 9 14 18 18 17 16 14 12 12 13 14 17 22 26 30 33 38 44 49 53 56 60 63 64 64 64 65 65 63 61 59 58 56
Wind_Direction_850mb
256 257 257 257 257 257 257 258 256 254 253 253 253 253 248 247 244 245 247 246 239 240 249 244 238 232 213 209 175 210 354 247 68 194 170 222 175 226 112 235 186 159 179 233 16 94 279 356 352 115 241 273 274 258
256 254 255 258 254 257 256 255 254 263 260 258 252 252 252 245 243 240 244 250 252 251 265 257 252 256 247 251 249 239 232 186 211 127 271 96 263 10 170 254 206 254 204 241 190 216 288 308 281 282 286 277 259 280
260 260 255 253 251 251 254 257 256 255 258 266 261 253 253 251 243 239 240 245 247 246 266 262 256 263 259 247 248 234 244 235 235 233 214 214 235 136 247 232 254 245 246 235 355 261 263 263 278 275 284 252 274 293
258 257 258 258 254 254 253 252 250 254 256 259 257 252 256 256 249 245 239 238 240 237 246 269 267 248 257 252 247 244 248 250 255 247 240 224 221 192 224 240 227 238 137 228 256 271 270 274 272 275 255 259 279 289
261 260 258 258 258 256 255 254 247 249 249 254 260 252 249 252 254 248 243 243 241 229 264 281 269 246 249 241 241 244 248 247 241 235 226 243 243 234 218 240 247 242 245 248 254 269 267 278 287 275 273 285 278 285
262 263 261 258 256 254 255 253 249 244 244 249 254 255 255 257 254 245 250 250 241 240 247 248 274 253 253 255 259 250 246 241 226 232 234 244 244 224 242 249 264 256 242 243 256 269 274 274 272 283 280 283 291 294
263 263 261 258 255 252 252 251 249 247 241 243 250 255 257 257 245 232 219 235 223 225 228 243 272 243 237 248 258 246 240 223 219 233 239 243 237 222 243 259 267 259 260 266 265 264 267 274 263 282 293 296 297 299
262 262 260 259 255 249 250 247 248 243 245 243 245 253 258 258 254 244 242 249 244 207 228 215 254 231 190 186 211 228 224 224 234 238 238 232 250 229 254 253 259 269 268 256 250 264 272 285 291 294 301 306 306 308
259 258 256 257 256 252 245 246 244 240 238 241 242 249 257 244 240 245 252 250 244 234 218 197 171 231 186 200 183 172 222 206 213 213 223 203 213 224 226 257 265 277 278 281 293 297 295 298 305 309 310 312 313 312
259 259 258 258 251 245 241 237 236 230 234 236 233 227 227 231 245 236 221 216 211 207 211 179 184 210 194 185 229 170 199 222 215 219 151 220 236 229 232 215 223 266 288 303 316 316 314 311 314 311 312 315 313 311
267 262 256 252 245 243 242 235 234 221 225 219 207 200 208 188 188 192 206 204 178 222 218 227 216 229 232 159 221 206 203 186 199 244 169 294 269 140 176 209 247 273 292 306 306 304 304 303 308 312 312 313 315 317
270 265 258 257 250 247 244 238 231 214 210 210 194 181 185 188 205 200 188 184 191 206 204 165 225 214 203 192 186 201 200 174 213 109 95 258 238 120 162 240 275 290 300 302 303 306 307 306 308 308 310 314 318 319
259 262 261 248 246 244 246 246 215 204 207 210 194 178 181 190 217 190 190 220 296 189 176 178 219 197 190 206 225 212 189 215 127 80 216 222 111 112 337 303 301 313 313 312 312 312 311 312 315 316 315 320 320 319
252 249 250 248 245 246 243 239 218 203 198 187 180 178 185 199 228 185 176 186 199 170 167 161 126 205 198 190 205 197 167 130 174 227 233 146 83 336 330 331 325 320 317 315 317 318 317 318 316 317 319 321 320 323
240 242 240 238 238 234 229 222 214 207 210 181 182 207 195 170 155 177 161 143 149 157 145 112 116 196 192 236 213 74 169 237 203 222 203 212 322 326 325 324 322 321 321 318 320 318 318 318 318 318 324 322 323 322
240 239 238 241 236 227 214 209 210 219 214 194 154 138 123 95 317 163 149 140 147 153 125 107 126 114 234 197 196 213 157 220 229 192 207 310 323 324 322 320 320 318 318 317 317 317 316 319 320 320 321 326 324 320
243 237 230 230 229 221 209 212 212 194 153 109 115 136 100 96 142 159 155 147 156 157 148 124 157 214 28 77 243 197 209 211 186 284 316 322 319 322 320 318 321 321 320 319 318 320 321 323 321 324 326 327 326 326
210 222 225 228 216 203 205 193 178 98 65 72 115 56 96 115 124 135 145 151 157 142 136 177 128 125 194 190 250 218 195 191 294 304 323 325 315 320 322 322 326 326 325 327 326 325 325 333 331 331 329 332 338 345
186 260 259 225 216 184 126 98 119 98 69 81 102 108 97 98 102 129 136 146 137 130 131 102 98 203 231 184 175 167 187 279 304 323 330 335 335 336 336 334 338 341 339 336 336 339 339 334 332 338 342 347 357 5
343 304 183 179 193 119 83 57 76 95 115 132 118 104 85 87 100 94 108 128 138 126 81 145 209 180 133 152 181 257 272 279 306 321 52 50 13 10 2 3 2 360 3 8 9 6 7 12 12 8 6 8 15 18
345 118 117 160 105 77 88 78 72 82 107 95 116 83 75 80 72 60 101 123 101 69 2 162 138 143 177 249 258 246 255 270 280 279 320 19 39 28 27 26 25 28 31 29 31 32 29 25 24 25 25 29 31 31
151 125 92 61 74 75 75 53 95 95 78 102 85 86 85 66 13 35 46 49 41 108 140 162 177 194 170 165 149 171 201 171 110 33 46 47 39 36 31 28 31 35 36 34 34 33 33 33 33 35 40 42 43 44
134 114 68 55 93 61 67 78 91 71 117 145 115 62 21 24 60 66 42 232 200 186 170 168 163 155 145 137 128 122 112 97 92 93 86 63 31 19 7 11 19 25 31 31 29 30 31 33 36 38 41 42 43 43
112 61 36 44 35 95 72 33 59 71 83 47 68 72 344 224 93 58 242 260 186 177 177 170 164 160 158 150 138 126 112 106 101 93 79 44 6 356 356 357 358 8 11 15 14 12 16 21 25 28 31 31 32 33
92 10 18 8 23 45 40 20 1 50 69 357 83 6 330 12 62 306 224 239 186 186 182 177 175 175 171 160 161 168 182 233 270 278 295 323 345 350 351 350 353 357 3 3 6 8 9 9 8 7 6 5 7 9
67 5 42 314 350 74 230 74 43 132 109 57 187 316 360 87 95 243 231 193 190 190 187 181 175 176 181 188 203 221 256 296 311 313 298 296 304 318 329 345 358 3 8 9 10 10 8 5 2 1 359 356 354 350
67 347 26 34 51 99 73 59 87 83 87 151 219 100 91 138 249 253 219 179 173 182 177 179 180 177 184 192 219 268 287 298 302 313 310 302 300 298 308 332 355 4 6 3 1 360 359 357 355 351 349 347 342 341
80 31 78 346 39 45 122 80 98 164 214 194 140 173 163 190 233 305 197 180 170 172 180 185 185 187 196 218 257 286 299 311 314 318 326 324 317 319 319 332 338 339 339 340 339 338 337 335 334 333 334 334 335 330
48 10 354 12 22 43 112 145 204 181 156 181 146 239 249 241 236 260 235 196 184 183 189 192 192 203 215 233 268 301 311 321 323 324 330 336 337 327 328 323 322 321 319 323 326 326 326 325 324 322 322 321 321 320
11 4 42 37 77 332 352 78 89 171 223 251 281 286 276 269 268 242 215 209 209 203 199 201 214 224 232 249 264 288 304 306 307 308 314 320 319 316 313 310 309 310 310 314 319 321 320 319 317 313 311 310 310 309
346 346 7 50 204 77 346 295 283 272 260 265 255 258 278 302 305 246 217 207 208 212 216 221 229 240 250 265 283 290 293 293 299 301 303 307 311 313 311 306 304 303 304 308 311 314 316 317 318 316 314 311 309 305
341 31 96 16 305 324 323 337 290 271 247 253 252 270 291 296 289 22 353 226 228 230 233 237 243 254 269 265 266 281 296 300 302 301 302 307 310 312 309 305 302 299 299 299 301 303 304 306 309 311 310 308 307 306
318 336 339 326 345 20 349 342 21 336 258 269 262 292 289 281 253 41 30 1 220 200 211 225 233 239 251 271 282 287 295 305 306 306 306 305 309 312 310 307 302 298 296 296 297 298 299 301 302 304 303 302 302 300